Meteo pe oră la Almirante

Astăzi, 16 Ianuarie, Sâmbătă

Timp Temperatura Precipitaţii Vânt Presiune Umiditate
00:00 +26°C° 0.3 mm 1 m/s 755 mmHg 88%
01:00 +26°C° 0.3 mm 1 m/s 755 mmHg 88%
02:00 +26°C° 0.5 mm 1 m/s 755 mmHg 88%
03:00 +26°C° 0.5 mm 1 m/s 754 mmHg 88%
04:00 +26°C° 0.5 mm 1 m/s 754 mmHg 88%
05:00 +26°C° 0.5 mm 1 m/s 755 mmHg 90%
06:00 +25°C° 0.5 mm 1 m/s 755 mmHg 91%
07:00 +25°C° 0.5 mm 1 m/s 755 mmHg 92%
08:00 +26°C° 0.3 mm 1 m/s 756 mmHg 91%
09:00 +26°C° 0.3 mm 1 m/s 756 mmHg 89%
10:00 +27°C° 0.3 mm 1 m/s 757 mmHg 88%
11:00 +28°C° 0.3 mm 2 m/s 757 mmHg 85%
12:00 +28°C° 0.3 mm 2 m/s 756 mmHg 82%
13:00 +29°C° 0.3 mm 3 m/s 756 mmHg 79%
14:00 +29°C° 0.2 mm 3 m/s 755 mmHg 76%
15:00 +29°C° 0.2 mm 3 m/s 755 mmHg 74%
16:00 +30°C° 0.2 mm 4 m/s 754 mmHg 71%
17:00 +29°C° 0.6 mm 3 m/s 754 mmHg 77%
18:00 +27°C° 0.6 mm 3 m/s 754 mmHg 82%
19:00 +26°C° 0.6 mm 2 m/s 755 mmHg 88%
20:00 +26°C° 0.4 mm 2 m/s 755 mmHg 88%
21:00 +26°C° 0.4 mm 2 m/s 756 mmHg 88%
22:00 +26°C° 0.4 mm 2 m/s 756 mmHg 88%
23:00 +26°C° 0.1 mm 2 m/s 756 mmHg 88%

Mâine, 17 Ianuarie, Duminică

Timp Temperatura Precipitaţii Vânt Presiune Umiditate
00:00 +25°C° 0.1 mm 2 m/s 756 mmHg 88%
01:00 +25°C° 0.1 mm 2 m/s 756 mmHg 88%
02:00 +24°C° 0 mm 2 m/s 755 mmHg 87%
03:00 +24°C° 0 mm 2 m/s 755 mmHg 87%
04:00 +24°C° 0 mm 2 m/s 754 mmHg 86%
05:00 +24°C° 0 mm 2 m/s 755 mmHg 83%
06:00 +23°C° 0 mm 2 m/s 755 mmHg 80%
07:00 +23°C° 0 mm 1 m/s 755 mmHg 77%
08:00 +25°C° 0 mm 1 m/s 755 mmHg 69%
09:00 +28°C° 0 mm 1 m/s 756 mmHg 62%
10:00 +30°C° 0 mm 1 m/s 756 mmHg 54%
11:00 +30°C° 0 mm 1 m/s 756 mmHg 56%
12:00 +30°C° 0 mm 1 m/s 755 mmHg 58%
13:00 +30°C° 0 mm 2 m/s 755 mmHg 61%
14:00 +30°C° 0 mm 2 m/s 754 mmHg 61%
15:00 +30°C° 0 mm 1 m/s 754 mmHg 61%
16:00 +31°C° 0 mm 1 m/s 753 mmHg 61%
17:00 +29°C° 0 mm 1 m/s 753 mmHg 69%
18:00 +28°C° 0 mm 1 m/s 754 mmHg 78%
19:00 +26°C° 0 mm 1 m/s 754 mmHg 86%
20:00 +26°C° 0 mm 1 m/s 755 mmHg 86%
21:00 +26°C° 0 mm 1 m/s 755 mmHg 85%
22:00 +25°C° 0 mm 1 m/s 756 mmHg 85%
23:00 +25°C° 0 mm 1 m/s 756 mmHg 84%

Poimâine, 18 Ianuarie, Luni

Timp Temperatura Precipitaţii Vânt Presiune Umiditate
00:00 +25°C° 0 mm 2 m/s 756 mmHg 83%
01:00 +25°C° 0 mm 2 m/s 756 mmHg 82%
02:00 +25°C° 0 mm 2 m/s 755 mmHg 80%
03:00 +25°C° 0 mm 2 m/s 755 mmHg 79%
04:00 +24°C° 0 mm 2 m/s 754 mmHg 78%
05:00 +25°C° 0.1 mm 2 m/s 755 mmHg 77%
06:00 +25°C° 0.1 mm 2 m/s 755 mmHg 76%
07:00 +25°C° 0.1 mm 2 m/s 756 mmHg 74%
08:00 +26°C° 0.1 mm 2 m/s 756 mmHg 72%
09:00 +28°C° 0.1 mm 2 m/s 756 mmHg 69%
10:00 +29°C° 0.1 mm 2 m/s 757 mmHg 66%
11:00 +28°C° 0.5 mm 2 m/s 756 mmHg 73%
12:00 +27°C° 0.5 mm 1 m/s 756 mmHg 81%
13:00 +26°C° 0.5 mm 1 m/s 755 mmHg 88%
14:00 +27°C° 0.5 mm 1 m/s 755 mmHg 87%
15:00 +27°C° 0.5 mm 1 m/s 754 mmHg 85%
16:00 +28°C° 0.5 mm 1 m/s 754 mmHg 83%
17:00 +27°C° 0.2 mm 1 m/s 754 mmHg 86%
18:00 +26°C° 0.2 mm 1 m/s 755 mmHg 89%
19:00 +26°C° 0.2 mm 1 m/s 755 mmHg 92%
20:00 +25°C° 0.1 mm 2 m/s 755 mmHg 91%
21:00 +25°C° 0.1 mm 2 m/s 756 mmHg 91%
22:00 +25°C° 0.1 mm 2 m/s 756 mmHg 90%
23:00 +24°C° 0.1 mm 2 m/s 756 mmHg 87%

19 Ianuarie, Marţi

Timp Temperatura Precipitaţii Vânt Presiune Umiditate
00:00 +23°C° 0.1 mm 2 m/s 756 mmHg 84%
01:00 +21°C° 0.1 mm 2 m/s 756 mmHg 81%
02:00 +23°C° 0.1 mm 2 m/s 756 mmHg 79%
03:00 +23°C° 0.1 mm 2 m/s 755 mmHg 77%
04:00 +23°C° 0.1 mm 2 m/s 755 mmHg 75%
05:00 +23°C° 0 mm 2 m/s 755 mmHg 75%
06:00 +23°C° 0 mm 1 m/s 756 mmHg 75%
07:00 +23°C° 0 mm 1 m/s 756 mmHg 75%
08:00 +26°C° 0 mm 1 m/s 756 mmHg 68%
09:00 +28°C° 0 mm 1 m/s 757 mmHg 62%
10:00 +30°C° 0 mm 1 m/s 757 mmHg 55%
11:00 +30°C° 0 mm 2 m/s 756 mmHg 57%
12:00 +30°C° 0 mm 3 m/s 756 mmHg 60%
13:00 +30°C° 0 mm 3 m/s 755 mmHg 62%
14:00 +30°C° 0.2 mm 3 m/s 755 mmHg 67%
15:00 +29°C° 0.2 mm 3 m/s 754 mmHg 71%
16:00 +29°C° 0.2 mm 3 m/s 754 mmHg 76%
17:00 +28°C° 0.7 mm 3 m/s 754 mmHg 80%
18:00 +27°C° 0.7 mm 3 m/s 754 mmHg 85%
19:00 +26°C° 0.7 mm 2 m/s 754 mmHg 90%
20:00 +26°C° 0.8 mm 2 m/s 755 mmHg 90%
21:00 +26°C° 0.8 mm 2 m/s 755 mmHg 90%
22:00 +26°C° 0.8 mm 2 m/s 756 mmHg 90%
23:00 +26°C° 0.6 mm 2 m/s 755 mmHg 90%

20 Ianuarie, Miercuri

Timp Temperatura Precipitaţii Vânt Presiune Umiditate
00:00 +26°C° 0.6 mm 2 m/s 755 mmHg 90%
01:00 +25°C° 0.6 mm 2 m/s 755 mmHg 90%
02:00 +25°C° 1.1 mm 2 m/s 755 mmHg 91%
03:00 +25°C° 1.1 mm 2 m/s 754 mmHg 92%
04:00 +25°C° 1.1 mm 2 m/s 754 mmHg 93%
05:00 +25°C° 1.4 mm 2 m/s 754 mmHg 93%
06:00 +25°C° 1.4 mm 2 m/s 755 mmHg 92%
07:00 +25°C° 1.4 mm 2 m/s 755 mmHg 92%
08:00 +26°C° 1.3 mm 2 m/s 755 mmHg 91%
09:00 +27°C° 1.3 mm 2 m/s 756 mmHg 89%
10:00 +28°C° 1.3 mm 2 m/s 756 mmHg 87%
11:00 +28°C° 1.4 mm 2 m/s 756 mmHg 87%
12:00 +28°C° 1.4 mm 2 m/s 755 mmHg 87%
13:00 +28°C° 1.4 mm 2 m/s 755 mmHg 86%
14:00 +27°C° 1.6 mm 2 m/s 754 mmHg 88%
15:00 +27°C° 1.6 mm 2 m/s 754 mmHg 89%
16:00 +26°C° 1.6 mm 2 m/s 753 mmHg 91%
17:00 +26°C° 0.9 mm 2 m/s 754 mmHg 90%
18:00 +26°C° 0.9 mm 2 m/s 754 mmHg 90%
19:00 +26°C° 0.9 mm 2 m/s 755 mmHg 90%
20:00 +26°C° 0.4 mm 2 m/s 755 mmHg 89%
21:00 +25°C° 0.4 mm 2 m/s 755 mmHg 89%
22:00 +25°C° 0.4 mm 2 m/s 756 mmHg 89%
23:00 +25°C° 0.4 mm 2 m/s 756 mmHg 90%

21 Ianuarie, Joi

Timp Temperatura Precipitaţii Vânt Presiune Umiditate
00:00 +25°C° 0.4 mm 2 m/s 755 mmHg 91%
01:00 +25°C° 0.4 mm 3 m/s 755 mmHg 91%
02:00 +24°C° 0.1 mm 2 m/s 755 mmHg 90%
03:00 +24°C° 0.1 mm 2 m/s 755 mmHg 89%
04:00 +24°C° 0.1 mm 2 m/s 754 mmHg 88%
05:00 +24°C° 0.1 mm 2 m/s 755 mmHg 86%
06:00 +24°C° 0.1 mm 2 m/s 755 mmHg 85%
07:00 +25°C° 0.1 mm 1 m/s 756 mmHg 83%
08:00 +26°C° 0.1 mm 1 m/s 756 mmHg 81%
09:00 +27°C° 0.1 mm 1 m/s 756 mmHg 80%
10:00 +28°C° 0.1 mm 1 m/s 757 mmHg 78%
11:00 +29°C° 0.1 mm 2 m/s 756 mmHg 72%
12:00 +30°C° 0.1 mm 2 m/s 756 mmHg 67%
13:00 +31°C° 0.1 mm 3 m/s 755 mmHg 61%
14:00 +31°C° 0 mm 2 m/s 754 mmHg 62%
15:00 +31°C° 0 mm 2 m/s 754 mmHg 64%
16:00 +30°C° 0 mm 2 m/s 753 mmHg 65%
17:00 +29°C° 0 mm 2 m/s 753 mmHg 72%
18:00 +28°C° 0 mm 2 m/s 754 mmHg 78%
19:00 +27°C° 0 mm 1 m/s 754 mmHg 84%
20:00 +27°C° 0.1 mm 1 m/s 754 mmHg 83%
21:00 +27°C° 0.1 mm 1 m/s 755 mmHg 82%
22:00 +27°C° 0.1 mm 1 m/s 755 mmHg 81%
23:00 +27°C° 0.1 mm 2 m/s 755 mmHg 80%
Arată mai mult

Formular de consimțământ

Meteoprog și furnizorii noștri de servicii pot stoca și accesa date personale, precum cookies, identificatori de dispozitiv sau alte tehnologii similare pe dispozitivul dumneavoastră și procesa astfel de date pentru a personaliza conținutul și reclamele, dar și pentru a oferi caracteristici de social media și pentru a analiza traficul.

  • Stocarea și/sau accesarea informațiilor pe dispozitivul dumneavoastră

    Cookies, identificatori de dispozitiv sau alte informații pot fi stocate sau accesate pe dispozitiv în scopurile indicate mai sus.

  • Reclame și conținut personalizat, evaluarea reclamelor și a conținutului, informații despre audiențe și dezvoltarea produselor

    Reclamele și conținutul pot fi personalizate pe baza unui profil. Pot fi adăugate date suplimentare pentru a personaliza mai bine reclamele și conținutul. Performanța reclamelor și conținutului poate fi măsurată. Pot fi obținute informații despre utilizatorii care au văzut reclamele și conținutul. Aceste date pot fi utilizate pentru a dezvolta sau îmbunătăți experiența utilizatorilor, sistemele și software-ul.

Dând clic pe ‘Sunt de acord’, permiteți utilizarea cookie-urilor menționate, a identificatorilor de dispozitiv, balizelor web sau altor tehnologii similare. Setările pot fi modificate din browser-ul dispozitivului dumneavoastră.

În anumite scopuri, interesele legitime pot prima asupra consimțământului. Puteți citi mai multe informații în acest sens în Politica privind Confidențialitatea Datelor și Cookie.